Regional Weather Roundup
Issued by NWS

Home | Current Version | Previous Version | Graphics & Text | Print | Product List | Glossary On
Versions: 1 2 3 4 5 6 7 8 9 10 11 12 13 14 15 16 17 18 19 20 21 22 23 24 25 26 27 28 29 30 31 32 33 34 35 36 37 38 39 40 41 42 43 44 45 46 47 48 49 50
000
ASUS43 KLMK 250702
RWRKY
KENTUCKY REGIONAL WEATHER ROUNDUP
NATIONAL WEATHER SERVICE LOUISVILLE KY
300 AM EDT MON SEP 25 2017

NOTE "FAIR" INDICATES FEW OR NO CLOUDS BELOW 12,000 FEET
WITH NO SIGNIFICANT WEATHER AND/OR OBSTRUCTIONS TO VISIBILITY.

KYZ001>023-026-027-061>063-070>075-250800-
WESTERN AND SOUTH CENTRAL KENTUCKY

CITY           SKY/WX    TMP DP  RH WIND       PRES   REMARKS
PADUCAH        CLEAR     66  63  90 CALM      29.98S
HENDERSON      CLOUDY    68  66  93 CALM      30.00R
OWENSBORO      PTCLDY    71  67  87 CALM      30.00S
HOPKINSVILLE   CLOUDY    69  68  96 N3        30.00R
BOWLING GREEN  CLEAR     68  67  96 CALM      30.01S
GLASGOW          N/A    N/A N/A N/A CALM      30.02S FOG
$$

KYZ024-025-028>034-038-045-046-053-250800-
NORTH CENTRAL KENTUCKY

CITY           SKY/WX    TMP DP  RH WIND       PRES   REMARKS
LOUISVILLE/SDF MOCLDY    73  63  70 CALM      30.01S
LOUISVILLE/LOU MOCLDY    66  64  93 CALM      30.02S
FORT KNOX      PTCLDY    65  63  91 CALM      30.01S
$$

KYZ035>037-039>044-047>052-055>060-089>105-250800-
NORTHEAST KENTUCKY

CITY           SKY/WX    TMP DP  RH WIND       PRES   REMARKS
LEXINGTON      CLEAR     63  60  90 CALM      30.04F
COVINGTON      PTCLDY    64  59  83 CALM      30.04F
FRANKFORT      CLEAR     63  59  87 CALM      30.02F
$$

KYZ054-064>069-076>088-106>120-250800-
SOUTHEAST KENTUCKY

CITY           SKY/WX    TMP DP  RH WIND       PRES   REMARKS
JACKSON        PTCLDY    68  60  75 CALM      30.06S
LONDON         CLEAR     65  62  90 CALM      30.04F
SOMERSET       CLEAR     63  63 100 CALM      30.05S FOG
MIDDLESBORO    CLEAR     61  61 100 CALM      30.07S
MONTICELLO     FOG       61  61 100 NW9       30.05F VSB 1
$$





USA.gov is the U.S. government's official web portal to all federal, state and local government web resources and services.